TimeCET,TemperatureF,Dew PointF,Humidity,Sea Level PressureIn,VisibilityMPH,Wind Direction,Wind SpeedMPH,Gust SpeedMPH,PrecipitationIn,Events,Conditions,WindDirDegrees,DateUTC
12:20 AM,51.8,44.6,76,30.36,5.0,NNE,5.8,-,N/A,,Unknown,20,2011-11-26 23:20:00
12:50 AM,51.8,44.6,76,30.36,5.0,North,4.6,-,N/A,,Unknown,360,2011-11-26 23:50:00
1:00 AM,50,42,67,30.38,6,NNW,3.5,,,,Mist,340,2011-11-27 00:00:00
1:20 AM,48.2,42.8,82,30.36,5.0,NNW,4.6,-,N/A,,Unknown,340,2011-11-27 00:20:00
1:50 AM,48.2,42.8,82,30.36,5.0,NNW,4.6,-,N/A,,Unknown,340,2011-11-27 00:50:00
2:20 AM,50.0,44.6,82,30.36,5.0,North,6.9,-,N/A,,Unknown,360,2011-11-27 01:20:00
2:50 AM,50.0,42.8,76,30.36,-9999.0,North,8.1,-,N/A,,Clear,10,2011-11-27 01:50:00
3:20 AM,50.0,42.8,76,30.36,-9999.0,NW,5.8,-,N/A,,Clear,310,2011-11-27 02:20:00
3:50 AM,50.0,42.8,76,30.36,-9999.0,NNW,4.6,-,N/A,,Clear,340,2011-11-27 02:50:00
4:00 AM,50,43,68,30.37,6,NNW,4.6,,,,Mist,340,2011-11-27 03:00:00
4:20 AM,50.0,42.8,76,30.36,-9999.0,North,4.6,-,N/A,,Clear,350,2011-11-27 03:20:00
4:50 AM,48.2,42.8,82,30.33,-9999.0,NNW,5.8,-,N/A,,Clear,340,2011-11-27 03:50:00
5:20 AM,48.2,41.0,76,30.36,-9999.0,North,5.8,-,N/A,,Clear,350,2011-11-27 04:20:00
5:50 AM,48.2,41.0,76,30.36,-9999.0,North,5.8,-,N/A,,Clear,360,2011-11-27 04:50:00
6:20 AM,48.2,41.0,76,30.36,-9999.0,North,3.5,-,N/A,,Clear,10,2011-11-27 05:20:00
6:50 AM,48.2,41.0,76,30.36,-9999.0,North,4.6,-,N/A,,Clear,360,2011-11-27 05:50:00
7:20 AM,46.4,41.0,81,30.36,-9999.0,North,4.6,-,N/A,,Clear,350,2011-11-27 06:20:00
7:50 AM,46.4,41.0,81,30.36,-9999.0,NNW,3.5,-,N/A,,Clear,340,2011-11-27 06:50:00
8:20 AM,50.0,42.8,76,30.36,-9999.0,NW,4.6,-,N/A,,Clear,320,2011-11-27 07:20:00
8:50 AM,51.8,42.8,71,30.36,-9999.0,North,3.5,-,N/A,,Clear,350,2011-11-27 07:50:00
9:20 AM,53.6,42.8,67,30.36,-9999.0,North,3.5,-,N/A,,Clear,10,2011-11-27 08:20:00
9:50 AM,55.4,42.8,63,30.39,-9999.0,NNE,3.5,-,N/A,,Clear,30,2011-11-27 08:50:00
10:00 AM,55,43,54,30.40,6,North,3.5,,,,Mist,10,2011-11-27 09:00:00
10:20 AM,57.2,42.8,59,30.39,-9999.0,Variable,2.3,-,N/A,,Clear,0,2011-11-27 09:20:00
10:50 AM,57.2,42.8,59,30.39,-9999.0,Variable,2.3,-,N/A,,Clear,0,2011-11-27 09:50:00
11:20 AM,60.8,42.8,52,30.36,-9999.0,Calm,Calm,-,N/A,,Clear,0,2011-11-27 10:20:00
11:50 AM,60.8,42.8,52,30.36,-9999.0,Variable,2.3,-,N/A,,Clear,0,2011-11-27 10:50:00
12:20 PM,62.6,42.8,48,30.36,-9999.0,Variable,1.2,-,N/A,,Clear,0,2011-11-27 11:20:00
12:50 PM,62.6,42.8,48,30.33,-9999.0,Variable,2.3,-,N/A,,Clear,0,2011-11-27 11:50:00
1:00 PM,63,44,39,30.35,9,West,2.3,,,,,260,2011-11-27 12:00:00
1:20 PM,62.6,42.8,48,30.33,-9999.0,South,3.5,-,N/A,,Clear,170,2011-11-27 12:20:00
1:50 PM,62.6,44.6,52,30.33,-9999.0,SSW,3.5,-,N/A,,Clear,200,2011-11-27 12:50:00
2:50 PM,62.6,48.2,59,30.30,-9999.0,South,3.5,-,N/A,,Clear,190,2011-11-27 13:50:00
3:20 PM,60.8,46.4,59,30.30,-9999.0,South,3.5,-,N/A,,Clear,190,2011-11-27 14:20:00
3:50 PM,60.8,48.2,63,30.30,-9999.0,South,3.5,-,N/A,,Clear,180,2011-11-27 14:50:00
4:00 PM,60,48,55,30.31,12,South,2.3,,,,,180,2011-11-27 15:00:00
4:20 PM,59.0,48.2,67,30.30,-9999.0,South,3.5,-,N/A,,Clear,190,2011-11-27 15:20:00
4:50 PM,59.0,48.2,67,30.30,-9999.0,WNW,3.5,-,N/A,,Clear,300,2011-11-27 15:50:00
5:20 PM,55.4,48.2,77,30.30,-9999.0,WNW,2.3,-,N/A,,Clear,290,2011-11-27 16:20:00
5:50 PM,53.6,48.2,82,30.30,-9999.0,West,3.5,-,N/A,,Clear,280,2011-11-27 16:50:00
6:20 PM,53.6,48.2,82,30.30,-9999.0,Variable,2.3,-,N/A,,Clear,0,2011-11-27 17:20:00
6:50 PM,51.8,48.2,88,30.30,-9999.0,Calm,Calm,-,N/A,,Clear,0,2011-11-27 17:50:00
7:20 PM,53.6,50.0,88,30.30,-9999.0,East,2.3,-,N/A,,Clear,90,2011-11-27 18:20:00
7:50 PM,51.8,48.2,88,30.30,-9999.0,NE,2.3,-,N/A,,Clear,50,2011-11-27 18:50:00
8:20 PM,51.8,46.4,82,30.33,-9999.0,Variable,1.2,-,N/A,,Clear,0,2011-11-27 19:20:00
8:50 PM,50.0,48.2,94,30.33,-9999.0,ENE,2.3,-,N/A,,Clear,70,2011-11-27 19:50:00
9:20 PM,50.0,46.4,87,30.33,3.7,Calm,Calm,-,N/A,,Unknown,0,2011-11-27 20:20:00
9:50 PM,50.0,46.4,87,30.33,3.7,Calm,Calm,-,N/A,,Unknown,0,2011-11-27 20:50:00
10:20 PM,48.2,46.4,93,30.33,3.7,Calm,Calm,-,N/A,,Unknown,0,2011-11-27 21:20:00
10:50 PM,46.4,44.6,93,30.33,3.7,Calm,Calm,-,N/A,,Unknown,0,2011-11-27 21:50:00
11:20 PM,44.6,42.8,93,30.33,3.1,NNE,2.3,-,N/A,,Mist,30,2011-11-27 22:20:00
11:50 PM,46.4,44.6,93,30.30,3.1,Variable,2.3,-,N/A,,Mist,0,2011-11-27 22:50:00